[[{"header":{"parameterUnit":"m.s-1","parameterCategory":2,"la1":30.2991,"la2":30.254,"lo1":-89.0895,"lo2":-89.0444,"dy":0.0017,"dx":0.0017,"nx":28,"ny":28,"refTime":"2024-06-19T03:00:00:Z","depth":"0","parameterNumber":2,"parameterNumberName":"U-component_of_CURRENTS"},"data":[0,0,0,0,0,0,0,0,0,0,0,0,0,0,0,0,0,0,0,0,0,0,0,0,0,0,0,0,0,0,0,0,0,0,0,0,0,0,0,0,0,0,0,0,0,0,0,0,0,0,0,0,0,0,0,0,0,0,0.3814,0.3814,0,0.3856,0.3856,0.3856,0.388,0.3881,0.3881,0.3882,0.3842,0.3841,0.384,0,0,0,0,0,0,0,0,0,0,0,0,0,0.3745,0.3746,0.3814,0.3814,0.3815,0.3856,0.3856,0.3856,0.388,0.3881,0.3881,0.3882,0.3843,0.3841,0.3839,0,0,0,0,0,0,0,0,0,0,0,0,0,0.3777,0.3746,0.3813,0.3834,0.3837,0.3855,0.3856,0.3856,0.388,0.3881,0.3881,0.3882,0.3843,0.3841,0.3839,0.3815,0,0,0.3833,0.3832,0,0,0,0,0,0,0,0,0.3775,0.3779,0.383,0.3833,0.3836,0.3866,0.3818,0.384,0.388,0.3861,0.3882,0.3882,0.3844,0.3842,0.3846,0.3814,0.3812,0.3833,0.3831,0.3831,0.383,0,0,0,0,0,0,0,0.3773,0.3777,0.3827,0.3831,0.3835,0.3839,0.3843,0.3822,0.3845,0.3862,0.3865,0.3874,0.3845,0.3848,0.3845,0.3811,0.3833,0.3831,0.383,0.3829,0.3827,0.3828,0,0,0,0,0,0,0.3774,0.3775,0.3826,0.3829,0.3809,0.384,0.3845,0.3853,0.3847,0.3848,0.3874,0.3875,0.3851,0.3847,0.3843,0.3864,0.3831,0.3829,0.3827,0.3826,0.3827,0.3828,0,0,0,0,0,0,0.3772,0.3778,0.3824,0.3805,0.3812,0.3841,0.385,0.3854,0.3862,0.3857,0.3856,0.3878,0.3851,0.3846,0.3842,0.3861,0.3828,0.3826,0.3824,0.3826,0.3828,0.3873,0,0,0,0,0,0,0.377,0.3777,0.3778,0.3805,0.3813,0.3847,0.385,0.3854,0.3868,0.387,0.386,0.3857,0.3851,0.3846,0.384,0.3857,0.3824,0.3823,0.3825,0.3827,0.387,0.3876,0.3882,0,0,0,0,0,0.3767,0.3769,0.3777,0.3783,0.3815,0.3848,0.3852,0.3872,0.3867,0.3878,0.3875,0.3858,0.3857,0.3845,0.3838,0.3855,0.3822,0.3824,0.3827,0.3868,0.3875,0.3882,0,0,0,0,0,0,0.3729,0.3773,0.3782,0.3794,0.3825,0.3853,0.3867,0.387,0.3875,0.3878,0.3861,0.3859,0.3869,0.3852,0.3839,0.3864,0.384,0.3842,0.3873,0.388,0.3886,0.3901,0.3822,0,0,0,0,0,0.3723,0.3745,0.3781,0.3792,0.3812,0.3836,0.3848,0.3865,0.3877,0.388,0.3874,0.3871,0.3874,0.3869,0.387,0.3866,0.3882,0.3878,0.3884,0.3888,0.3898,0.3947,0.3958,0.3837,0.3837,0.3837,0,0,0.3713,0.3739,0.3751,0.3787,0.3814,0.3839,0.3845,0.3876,0.389,0.3872,0.3884,0.3888,0.3879,0.3894,0.3896,0.3881,0.3933,0.3892,0.3896,0.3903,0.3951,0.3963,0.3973,0.3839,0.3839,0.3838,0,0,0.3708,0.373,0.375,0.3779,0.3824,0.3844,0.3852,0.3887,0.3901,0.3918,0.3914,0.3931,0.3924,0.3932,0.3931,0.3963,0.3965,0.3963,0.3995,0.4043,0.4053,0.4062,0.4104,0.4117,0.3961,0.3961,0.3961,0,0.3697,0.3718,0.3759,0.3785,0.3811,0.3845,0.3869,0.3888,0.3913,0.3929,0.3933,0.396,0.3949,0.3968,0.399,0.3976,0.4004,0.3967,0.4051,0.406,0.4069,0.411,0.4123,0.3963,0.3963,0.3963,0.3963,0,0.3707,0.3726,0.3744,0.3792,0.3824,0.3853,0.3895,0.3921,0.3944,0.3964,0.4004,0.401,0.4028,0.4031,0.402,0.4072,0.4073,0.4056,0.4033,0.4084,0.4124,0.4137,0.3967,0.3966,0.3965,0.3965,0,0,0.3664,0.374,0.3738,0.3765,0.3831,0.3855,0.39,0.3947,0.3972,0.4013,0.4056,0.4075,0.4092,0.4093,0.4086,0.4126,0.4211,0.4122,0.4123,0.4164,0.4325,0.4272,0.4281,0.4215,0.4217,0.4219,0.4329,0,0.3657,0.3702,0.3742,0.3779,0.3811,0.3869,0.3904,0.3953,0.4,0.405,0.4087,0.4126,0.4108,0.4132,0.4169,0.4207,0.4248,0.4183,0.4269,0.4272,0.4219,0.4295,0.4211,0.4297,0.4342,0.4344,0.4346,0,0.3634,0.3674,0.3717,0.3785,0.3804,0.3832,0.391,0.3948,0.4032,0.4071,0.4131,0.4169,0.4237,0.4219,0.4317,0.4282,0.4309,0.4336,0.434,0.4284,0.4243,0.4253,0.432,0.4287,0.4366,0.4364,0.4363,0,0.3575,0.3639,0.3675,0.37,0.3789,0.3822,0.3871,0.3955,0.3986,0.4099,0.4148,0.423,0.4292,0.4347,0.4405,0.4378,0.4519,0.4481,0.4457,0.4454,0.4394,0.4381,0.4438,0.4553,0.4553,0.4553,0.4552,0,0.3539,0.3555,0.365,0.367,0.3702,0.3792,0.3829,0.3898,0.3991,0.4038,0.4152,0.422,0.4334,0.4423,0.4449,0.4505,0.4555,0.4487,0.4487,0.4407,0.4394,0.4369,0.4331,0.4557,0.4556,0.4555,0.4554,0,0.3455,0.352,0.356,0.3657,0.3676,0.3706,0.3782,0.3808,0.3927,0.4005,0.4052,0.4237,0.437,0.4455,0.4574,0.4564,0.4514,0.4614,0.4511,0.4495,0.4408,0.4373,0.4201,0.4064,0.4611,0.461,0.461,0,0.3421,0.3438,0.3523,0.3537,0.3576,0.3621,0.364,0.3752,0.3797,0.4004,0.4046,0.4234,0.4329,0.4499,0.4561,0.4621,0.4486,0.4551,0.4467,0.4414,0.4378,0.4161,0.4042,0.4418,0.4416,0.4414,0.4413,0,0.3356,0.3388,0.3425,0.3448,0.3472,0.3475,0.3537,0.3555,0.3708,0.3789,0.3934,0.4045,0.4285,0.4361,0.4486,0.4502,0.4367,0.4515,0.45,0.4269,0.3999,0.3863,0.4334,0.4399,0.44,0.4401,0.4402,0.4402,0.3297,0.3296,0.3338,0.3338,0.335,0.3324,0.3285,0.337,0.3411,0.3528,0.3742,0.3876,0.4158,0.4339,0.4327,0.4355,0.4248,0.4298,0.4277,0.4073,0.3878,0.4309,0.4338,0.4339,0.434,0.434,0.4341,0,0.3194,0.3199,0.3214,0.3193,0.3127,0.3181,0.3189,0.3139,0.3132,0.3359,0.3454,0.3746,0.3898,0.4096,0.429,0.42,0.3949,0.4102,0.3826,0.3729,0.4195,0.4129,0.4065,0.4065,0.4065,0.4065,0.4065,0.4065,0.3143,0.3103,0.3097,0.2961,0.2932,0.2801,0.2767,0.2753,0.2877,0.3013,0.3208,0.3417,0.388,0.4193,0.4242,0.4124,0.3818,0.3646,0.3572,0.401,0.4027,0.4043,0.3975,0.388,0.388,0.2972,0.2966,0.2962]},{"header":{"parameterUnit":"m.s-1","parameterCategory":2,"la1":30.2991,"la2":30.254,"lo1":-89.0895,"lo2":-89.0444,"dy":0.0017,"dx":0.0017,"nx":28,"ny":28,"refTime":"2024-06-19T03:00:00:Z","depth":"0","parameterNumber":3,"parameterNumberName":"V-component_of_CURRENTS"},"data":[0,0,0,0,0,0,0,0,0,0,0,0,0,0,0,0,0,0,0,0,0,0,0,0,0,0,0,0,0,0,0,0,0,0,0,0,0,0,0,0,0,0,0,0,0,0,0,0,0,0,0,0,0,0,0,0,0,0,-0.0225,-0.0226,0,-0.0368,-0.037,-0.0372,-0.0467,-0.0467,-0.0467,-0.0467,-0.0616,-0.062,-0.0623,0,0,0,0,0,0,0,0,0,0,0,0,0,-0.0127,-0.0128,-0.0225,-0.0226,-0.0228,-0.0368,-0.037,-0.0373,-0.0467,-0.0467,-0.0467,-0.0468,-0.0615,-0.0619,-0.0624,0,0,0,0,0,0,0,0,0,0,0,0,0,-0.0213,-0.0128,-0.0225,-0.0288,-0.0295,-0.0368,-0.037,-0.0373,-0.0467,-0.0467,-0.0467,-0.0468,-0.0613,-0.0619,-0.0624,-0.0652,0,0,-0.0641,-0.0644,0,0,0,0,0,0,0,0,-0.0208,-0.0217,-0.0278,-0.0284,-0.0292,-0.0396,-0.039,-0.0465,-0.0467,-0.0406,-0.0467,-0.0468,-0.054,-0.0552,-0.0584,-0.0659,-0.0665,-0.0642,-0.0645,-0.0648,-0.0649,0,0,0,0,0,0,0,-0.0202,-0.0212,-0.0286,-0.0279,-0.0288,-0.0342,-0.0354,-0.0406,-0.0473,-0.0411,-0.0418,-0.0427,-0.0544,-0.0578,-0.0588,-0.0667,-0.0642,-0.0647,-0.065,-0.0652,-0.0748,-0.0747,0,0,0,0,0,0,-0.0171,-0.0206,-0.0281,-0.029,-0.0245,-0.0343,-0.0357,-0.0366,-0.0472,-0.0487,-0.0426,-0.043,-0.0568,-0.0581,-0.0593,-0.0609,-0.0648,-0.0653,-0.0656,-0.0749,-0.0748,-0.0747,0,0,0,0,0,0,-0.0168,-0.0176,-0.0276,-0.0248,-0.0264,-0.0343,-0.0353,-0.0368,-0.04,-0.0483,-0.0499,-0.044,-0.0569,-0.0585,-0.0627,-0.0616,-0.0655,-0.066,-0.075,-0.0748,-0.0747,-0.0656,0,0,0,0,0,0,-0.0165,-0.0174,-0.0178,-0.0246,-0.0264,-0.0317,-0.0353,-0.0371,-0.0403,-0.041,-0.05,-0.0515,-0.0571,-0.0618,-0.0632,-0.0625,-0.0665,-0.0751,-0.0749,-0.0748,-0.066,-0.0651,-0.0644,0,0,0,0,0,-0.0161,-0.0158,-0.0177,-0.0187,-0.0264,-0.0316,-0.0332,-0.0392,-0.0402,-0.042,-0.0467,-0.0512,-0.0618,-0.0622,-0.0639,-0.0633,-0.0751,-0.075,-0.0748,-0.0663,-0.0653,-0.0645,0,0,0,0,0,0,-0.0122,-0.0169,-0.0192,-0.0205,-0.0255,-0.033,-0.0346,-0.0382,-0.0435,-0.0433,-0.0507,-0.0526,-0.056,-0.0604,-0.0605,-0.0654,-0.069,-0.0691,-0.062,-0.0611,-0.0603,-0.0571,-0.0669,0,0,0,0,0,-0.0111,-0.0119,-0.0178,-0.0189,-0.0206,-0.0272,-0.03,-0.0337,-0.0388,-0.0413,-0.0471,-0.0522,-0.0567,-0.0592,-0.0645,-0.0671,-0.07,-0.0676,-0.0668,-0.0661,-0.0645,-0.0683,-0.0677,-0.0741,-0.0741,-0.0741,0,0,-0.0099,-0.0124,-0.0131,-0.0181,-0.022,-0.0232,-0.0291,-0.0322,-0.0328,-0.0418,-0.0442,-0.0503,-0.0568,-0.06,-0.0618,-0.0635,-0.0655,-0.0659,-0.0653,-0.064,-0.0681,-0.0675,-0.0669,-0.074,-0.074,-0.074,0,0,-0.0065,-0.0097,-0.0088,-0.012,-0.0164,-0.0203,-0.0203,-0.0269,-0.0298,-0.0332,-0.0388,-0.0433,-0.0511,-0.0552,-0.0581,-0.0558,-0.0616,-0.0579,-0.0515,-0.0552,-0.0547,-0.0543,-0.0555,-0.0553,-0.0572,-0.0572,-0.0572,0,-0.0047,-0.0047,-0.0097,-0.0093,-0.0106,-0.0176,-0.0166,-0.0203,-0.0275,-0.0285,-0.0324,-0.0423,-0.0483,-0.0508,-0.0503,-0.0541,-0.0565,-0.0545,-0.0541,-0.0538,-0.0535,-0.0549,-0.0548,-0.0567,-0.0568,-0.0568,-0.0569,0,-0.0003,-0.0008,-0.0002,-0.0014,-0.0035,-0.0044,-0.0088,-0.0105,-0.0143,-0.0188,-0.0232,-0.0322,-0.0375,-0.0407,-0.0452,-0.0461,-0.0484,-0.0529,-0.0561,-0.0523,-0.0541,-0.0541,-0.0561,-0.0562,-0.0564,-0.0565,0,0,0.0055,0.0033,0.0036,0.0048,0.0006,0.0002,0.0006,-0.0018,-0.0,-0.0088,-0.0089,-0.018,-0.0237,-0.0272,-0.0342,-0.0381,-0.0386,-0.0439,-0.0443,-0.0444,-0.045,-0.046,-0.0462,-0.0437,-0.0437,-0.0437,-0.0464,0,0.0104,0.0133,0.0107,0.0143,0.0155,0.0111,0.0127,0.0102,0.0057,0.0038,-0.0057,-0.0093,-0.0182,-0.0207,-0.0259,-0.0355,-0.0386,-0.0374,-0.0493,-0.0495,-0.0504,-0.0462,-0.0431,-0.0452,-0.0464,-0.0465,-0.0465,0,0.0161,0.0174,0.0214,0.0234,0.0239,0.0258,0.028,0.0275,0.0231,0.0195,0.0131,0.0051,-0.0012,-0.0101,-0.0229,-0.0219,-0.0316,-0.0399,-0.0403,-0.0442,-0.0506,-0.0497,-0.0453,-0.0654,-0.0466,-0.0466,-0.0466,0,0.0235,0.0253,0.0293,0.0295,0.0307,0.0339,0.0345,0.0327,0.0346,0.029,0.0292,0.0183,0.0147,0.0003,-0.016,-0.0194,-0.0303,-0.0374,-0.0472,-0.0473,-0.0483,-0.0486,-0.0642,-0.0459,-0.0459,-0.0459,-0.0459,0,0.0294,0.0333,0.0339,0.0365,0.0443,0.0419,0.0485,0.0477,0.0473,0.0521,0.0378,0.0397,0.017,0.0076,-0.0102,-0.0266,-0.0254,-0.044,-0.0478,-0.0449,-0.0448,-0.0655,-0.078,-0.046,-0.046,-0.0459,-0.0459,0,0.0368,0.0361,0.0419,0.0453,0.0477,0.0532,0.0585,0.0633,0.0612,0.0669,0.0665,0.0573,0.0455,0.0229,0.0015,-0.0162,-0.046,-0.0407,-0.0343,-0.0374,-0.0668,-0.0788,-0.0987,-0.1108,-0.0518,-0.0518,-0.0519,0,0.0403,0.0437,0.0495,0.0542,0.0564,0.0633,0.0692,0.0701,0.0757,0.0798,0.0847,0.0758,0.0718,0.0393,0.0069,-0.0227,-0.0451,-0.0405,-0.0477,-0.0662,-0.0824,-0.0925,-0.1021,-0.0449,-0.0449,-0.0448,-0.0448,0,0.0478,0.0498,0.0546,0.0638,0.0712,0.0792,0.0877,0.0951,0.0989,0.1051,0.1134,0.1112,0.0818,0.0543,0.0125,-0.0106,-0.0559,-0.041,-0.0625,-0.0794,-0.0889,-0.103,-0.0445,-0.0446,-0.0446,-0.0446,-0.0447,-0.0447,0.054,0.0588,0.0648,0.0743,0.083,0.0947,0.102,0.1128,0.1249,0.1367,0.1359,0.1384,0.0988,0.0418,0.007,-0.0523,-0.0571,-0.0706,-0.0834,-0.0917,-0.1046,-0.0441,-0.0478,-0.0479,-0.0479,-0.0479,-0.048,0,0.0607,0.066,0.0748,0.0854,0.0957,0.099,0.1145,0.1227,0.1384,0.1537,0.1607,0.1502,0.0968,0.0418,-0.0362,-0.0832,-0.1051,-0.1103,-0.125,-0.1332,-0.08,-0.0809,-0.0889,-0.0889,-0.0888,-0.0888,-0.0888,-0.0888,0.0645,0.0733,0.0773,0.094,0.1021,0.1154,0.1241,0.1383,0.1519,0.1713,0.1808,0.1835,0.1523,0.0048,-0.0995,-0.1274,-0.1621,-0.169,-0.1902,-0.1543,-0.1516,-0.1491,-0.1528,-0.1758,-0.1759,-0.2371,-0.2378,-0.2382]}],[{"header":{"parameterUnit":"m.s-1","parameterCategory":2,"la1":30.2991,"la2":30.254,"lo1":-89.0895,"lo2":-89.0444,"dy":0.0017,"dx":0.0017,"nx":28,"ny":28,"refTime":"2024-06-19T03:00:00:Z","depth":"2","parameterNumber":2,"parameterNumberName":"U-component_of_CURRENTS"},"data":[0,0,0,0,0,0,0,0,0,0,0,0,0,0,0,0,0,0,0,0,0,0,0,0,0,0,0,0,0,0,0,0,0,0,0,0,0,0,0,0,0,0,0,0,0,0,0,0,0,0,0,0,0,0,0,0,0,0,0.3456,0.3457,0,0.3463,0.3463,0.3462,0.35,0.3502,0.3504,0.3505,0.3483,0.3481,0.3478,0,0,0,0,0,0,0,0,0,0,0,0,0,0.3383,0.3384,0.3456,0.3457,0.3458,0.3463,0.3462,0.3462,0.3499,0.3502,0.3504,0.3506,0.3484,0.3481,0.3478,0,0,0,0,0,0,0,0,0,0,0,0,0,0.3394,0.3384,0.3455,0.3486,0.3489,0.3464,0.3462,0.3461,0.3499,0.3502,0.3505,0.3507,0.3485,0.3481,0.3478,0.3398,0,0,0.3467,0.3465,0,0,0,0,0,0,0,0,0.3394,0.3396,0.348,0.3484,0.3488,0.3493,0.3429,0.3442,0.3498,0.3483,0.3505,0.3509,0.3489,0.3485,0.3464,0.3397,0.3396,0.3466,0.3464,0.3463,0.3462,0,0,0,0,0,0,0,0.3393,0.3395,0.3447,0.3481,0.3486,0.3469,0.3473,0.3431,0.346,0.3485,0.3491,0.3508,0.349,0.3468,0.3464,0.3395,0.3466,0.3463,0.3461,0.346,0.3494,0.3497,0,0,0,0,0,0,0.3416,0.3395,0.3447,0.3449,0.346,0.3469,0.3473,0.3479,0.3462,0.3465,0.3506,0.351,0.3473,0.3469,0.3464,0.352,0.3463,0.3459,0.3457,0.3491,0.3494,0.3498,0,0,0,0,0,0,0.3414,0.342,0.3447,0.3431,0.3435,0.3469,0.3474,0.3478,0.3493,0.348,0.3481,0.3523,0.3475,0.3469,0.3538,0.3514,0.3458,0.3454,0.3487,0.3492,0.3496,0.3534,0,0,0,0,0,0,0.3412,0.3419,0.342,0.3433,0.3438,0.3457,0.3473,0.3477,0.3503,0.3509,0.3494,0.3493,0.3476,0.3545,0.3535,0.3508,0.3452,0.3483,0.3489,0.3495,0.3529,0.3539,0.3548,0,0,0,0,0,0.3409,0.3409,0.342,0.3427,0.3442,0.3458,0.3457,0.3483,0.3502,0.3505,0.3564,0.3496,0.3572,0.3546,0.3533,0.3504,0.348,0.3487,0.3494,0.3524,0.3537,0.3548,0,0,0,0,0,0,0.3371,0.3414,0.3426,0.3437,0.3459,0.347,0.3475,0.3493,0.3529,0.3555,0.3544,0.3548,0.3583,0.3567,0.3537,0.3542,0.3508,0.3512,0.3535,0.3546,0.3556,0.3579,0.3449,0,0,0,0,0,0.3365,0.3385,0.3415,0.3427,0.3437,0.3456,0.3464,0.3491,0.3531,0.3548,0.3546,0.3568,0.3587,0.3597,0.3594,0.3599,0.3608,0.3577,0.3586,0.3594,0.3613,0.3645,0.3658,0.352,0.352,0.352,0,0,0.3357,0.3384,0.3395,0.3422,0.3435,0.3457,0.3466,0.3498,0.3526,0.3537,0.3573,0.3588,0.3603,0.3627,0.3636,0.3618,0.3644,0.3603,0.3609,0.3623,0.3654,0.3667,0.3678,0.3525,0.3524,0.3523,0,0,0.3359,0.3371,0.3391,0.3414,0.3459,0.3469,0.3489,0.3514,0.3533,0.358,0.3609,0.3663,0.3646,0.368,0.3691,0.3756,0.3691,0.3721,0.3778,0.3809,0.382,0.3829,0.3869,0.3882,0.3728,0.3728,0.3728,0,0.3347,0.3376,0.3397,0.3427,0.3448,0.3483,0.3506,0.3526,0.3578,0.3607,0.3608,0.3664,0.3675,0.3735,0.3783,0.3768,0.3782,0.372,0.3818,0.3827,0.3836,0.3875,0.3888,0.373,0.373,0.373,0.373,0,0.3372,0.3394,0.3408,0.3458,0.3477,0.3506,0.3547,0.358,0.3605,0.363,0.3686,0.3724,0.3767,0.3763,0.38,0.3861,0.3849,0.3817,0.3775,0.3852,0.3889,0.3902,0.3734,0.3733,0.3732,0.3732,0,0,0.3326,0.3409,0.3412,0.3432,0.3497,0.3509,0.3574,0.3626,0.3673,0.3704,0.3749,0.3817,0.3834,0.3856,0.3874,0.3922,0.4013,0.391,0.3911,0.3929,0.4091,0.4045,0.4054,0.3984,0.3986,0.3988,0.4093,0,0.3331,0.3382,0.3429,0.3466,0.3481,0.3545,0.3595,0.3659,0.3703,0.3754,0.3806,0.3854,0.3863,0.3895,0.3943,0.4008,0.4049,0.3989,0.4034,0.4037,0.3967,0.4068,0.3763,0.3827,0.4106,0.4108,0.4109,0,0.3319,0.3356,0.3401,0.3462,0.3475,0.3521,0.36,0.3653,0.3759,0.3795,0.3862,0.3894,0.4009,0.3974,0.4108,0.4067,0.4092,0.4122,0.4125,0.4078,0.4015,0.3798,0.384,0.4131,0.4129,0.4128,0.4126,0,0.324,0.3316,0.3349,0.3374,0.3466,0.3513,0.357,0.3675,0.3726,0.3838,0.3889,0.398,0.4035,0.4101,0.4189,0.4158,0.4303,0.4254,0.4225,0.4222,0.3973,0.3943,0.4315,0.4315,0.4314,0.4314,0.4314,0,0.3198,0.3214,0.3325,0.334,0.3391,0.3472,0.3536,0.3624,0.3736,0.379,0.3907,0.3961,0.4069,0.4157,0.4215,0.4285,0.4324,0.4269,0.4255,0.3981,0.3953,0.4217,0.4204,0.4318,0.4317,0.4316,0.4316,0,0.3105,0.3174,0.321,0.3319,0.3357,0.3396,0.3519,0.3558,0.3701,0.3778,0.3825,0.3979,0.4113,0.4209,0.4323,0.4314,0.4389,0.4378,0.4066,0.4015,0.4279,0.4268,0.4383,0.4382,0.4382,0.4381,0.4381,0,0.3064,0.3082,0.3186,0.32,0.3257,0.333,0.3374,0.3523,0.3564,0.3773,0.3793,0.3973,0.4059,0.4246,0.4276,0.4369,0.4397,0.4091,0.3982,0.4316,0.4291,0.428,0.427,0.3669,0.3663,0.3658,0.3654,0,0.2983,0.3034,0.3063,0.311,0.3152,0.3204,0.3284,0.3314,0.3473,0.3574,0.3708,0.3825,0.401,0.3979,0.4098,0.4094,0.4068,0.3995,0.4417,0.3709,0.3654,0.3627,0.3637,0.361,0.3614,0.3617,0.362,0.3622,0.2917,0.2923,0.2967,0.2993,0.3039,0.3071,0.3063,0.3139,0.3217,0.3315,0.35,0.3579,0.3679,0.3737,0.3677,0.3635,0.391,0.3728,0.3738,0.3755,0.3663,0.3611,0.3542,0.3546,0.3549,0.3552,0.3555,0,0.2813,0.2832,0.2843,0.2869,0.2858,0.2947,0.2983,0.2938,0.2958,0.3099,0.3198,0.3042,0.3085,0.3186,0.3093,0.3147,0.3056,0.2991,0.2838,0.2889,0.2933,0.2791,0.2443,0.2438,0.2434,0.2431,0,0,0.2753,0.2716,0.2723,0.2673,0.2704,0.2662,0.2656,0.2622,0.2675,0.2664,0.2691,0.2934,0.3124,0.2726,0.272,0.2565,0.2682,0.2462,0.3372,0.3244,0.3281,0.34,0.3247,0,0,0,0,0]},{"header":{"parameterUnit":"m.s-1","parameterCategory":2,"la1":30.2991,"la2":30.254,"lo1":-89.0895,"lo2":-89.0444,"dy":0.0017,"dx":0.0017,"nx":28,"ny":28,"refTime":"2024-06-19T03:00:00:Z","depth":"2","parameterNumber":3,"parameterNumberName":"V-component_of_CURRENTS"},"data":[0,0,0,0,0,0,0,0,0,0,0,0,0,0,0,0,0,0,0,0,0,0,0,0,0,0,0,0,0,0,0,0,0,0,0,0,0,0,0,0,0,0,0,0,0,0,0,0,0,0,0,0,0,0,0,0,0,0,-0.0006,-0.0007,0,-0.0087,-0.0088,-0.0089,-0.016,-0.0161,-0.0162,-0.0162,-0.0285,-0.0287,-0.029,0,0,0,0,0,0,0,0,0,0,0,0,0,0.0056,0.0055,-0.0006,-0.0007,-0.0008,-0.0087,-0.0088,-0.0089,-0.016,-0.0161,-0.0162,-0.0163,-0.0284,-0.0287,-0.029,0,0,0,0,0,0,0,0,0,0,0,0,0,0.0008,0.0055,-0.0006,-0.0053,-0.0058,-0.0087,-0.0088,-0.0089,-0.016,-0.0161,-0.0162,-0.0163,-0.0283,-0.0287,-0.029,-0.0287,0,0,-0.0302,-0.0303,0,0,0,0,0,0,0,0,0.0011,0.0006,-0.0045,-0.005,-0.0056,-0.0115,-0.0111,-0.0158,-0.0159,-0.0121,-0.0162,-0.0164,-0.0231,-0.0239,-0.025,-0.0293,-0.0298,-0.0302,-0.0304,-0.0306,-0.0307,0,0,0,0,0,0,0,0.0014,0.0009,-0.0037,-0.0046,-0.0052,-0.0081,-0.0089,-0.012,-0.0168,-0.0124,-0.0129,-0.0139,-0.0234,-0.0247,-0.0254,-0.03,-0.0302,-0.0305,-0.0307,-0.0309,-0.0435,-0.0436,0,0,0,0,0,0,0.0027,0.0012,-0.0035,-0.004,-0.0025,-0.0081,-0.009,-0.0094,-0.0167,-0.0179,-0.0138,-0.0142,-0.024,-0.025,-0.0259,-0.0294,-0.0306,-0.0309,-0.0311,-0.0434,-0.0435,-0.0436,0,0,0,0,0,0,0.0028,0.0024,-0.0032,-0.0016,-0.0026,-0.0081,-0.0085,-0.0095,-0.0113,-0.0177,-0.019,-0.0146,-0.0241,-0.0253,-0.0332,-0.0299,-0.0311,-0.0314,-0.0432,-0.0434,-0.0436,-0.0344,0,0,0,0,0,0,0.0031,0.0025,0.0031,-0.0015,-0.0026,-0.0042,-0.0084,-0.0096,-0.0117,-0.0123,-0.0188,-0.0201,-0.0243,-0.0327,-0.0336,-0.0304,-0.0317,-0.0431,-0.0433,-0.0435,-0.0345,-0.0342,-0.0339,0,0,0,0,0,0.0033,0.0046,0.0032,0.0026,-0.0017,-0.0041,-0.0049,-0.0093,-0.0116,-0.0115,-0.0198,-0.0199,-0.0346,-0.0332,-0.0342,-0.031,-0.043,-0.0433,-0.0435,-0.0347,-0.0343,-0.0339,0,0,0,0,0,0,0.0069,0.0039,0.0022,0.0023,-0.0004,-0.0054,-0.0055,-0.0086,-0.0145,-0.0161,-0.0226,-0.0245,-0.0286,-0.0331,-0.0314,-0.0359,-0.0381,-0.0386,-0.0311,-0.0307,-0.0304,-0.0272,-0.032,0,0,0,0,0,0.0084,0.0084,0.0049,0.0047,0.0042,-0.0004,-0.0019,-0.005,-0.0108,-0.0134,-0.0184,-0.025,-0.0301,-0.0335,-0.0377,-0.0414,-0.0442,-0.0401,-0.0398,-0.0395,-0.038,-0.042,-0.0417,-0.0445,-0.0445,-0.0445,0,0,0.0097,0.0077,0.0078,0.0055,0.0032,0.0028,-0.0016,-0.0033,-0.0047,-0.0138,-0.0174,-0.023,-0.0309,-0.0348,-0.0369,-0.0386,-0.0405,-0.0398,-0.0394,-0.0381,-0.0422,-0.0419,-0.0416,-0.0447,-0.0446,-0.0446,0,0,0.0121,0.011,0.0121,0.0107,0.0078,0.0052,0.0051,0.0008,-0.0016,-0.0064,-0.0132,-0.0193,-0.0259,-0.0317,-0.0356,-0.0368,-0.0377,-0.0366,-0.0329,-0.0368,-0.0365,-0.0362,-0.0391,-0.0392,-0.0375,-0.0375,-0.0375,0,0.0136,0.0146,0.012,0.0124,0.012,0.0069,0.0081,0.0049,-0.002,-0.0036,-0.0065,-0.0172,-0.0242,-0.0298,-0.0314,-0.0352,-0.0373,-0.0328,-0.0359,-0.0357,-0.0356,-0.0386,-0.0388,-0.0371,-0.0371,-0.0371,-0.0372,0,0.0168,0.0176,0.0183,0.0175,0.0167,0.0169,0.013,0.0114,0.0081,0.0045,0.0002,-0.0101,-0.0166,-0.0192,-0.0263,-0.0287,-0.0303,-0.0334,-0.0352,-0.0346,-0.0381,-0.0384,-0.0365,-0.0366,-0.0367,-0.0368,0,0,0.021,0.0209,0.0213,0.0227,0.0199,0.02,0.0184,0.0166,0.0168,0.0104,0.0102,-0.0009,-0.005,-0.0099,-0.0178,-0.0229,-0.0257,-0.0277,-0.0281,-0.0278,-0.0327,-0.0334,-0.0339,-0.0283,-0.0284,-0.0284,-0.0351,0,0.0247,0.0277,0.0262,0.0293,0.0314,0.0275,0.0274,0.0243,0.0211,0.0195,0.0103,0.0068,-0.0018,-0.0045,-0.0108,-0.0216,-0.0263,-0.0235,-0.0357,-0.0361,-0.0345,-0.0343,-0.0307,-0.0363,-0.0354,-0.0355,-0.0356,0,0.0292,0.0308,0.035,0.0372,0.0381,0.0387,0.0395,0.0385,0.0337,0.0316,0.0263,0.0195,0.0101,0.0036,-0.0122,-0.0095,-0.02,-0.0283,-0.0288,-0.0325,-0.0375,-0.0373,-0.037,-0.0362,-0.0362,-0.0361,-0.0361,0,0.0353,0.0377,0.0418,0.0423,0.0432,0.0449,0.0452,0.0424,0.0438,0.0393,0.0399,0.0288,0.0243,0.0102,-0.0081,-0.01,-0.0236,-0.0289,-0.0389,-0.0391,-0.0401,-0.0403,-0.0384,-0.0384,-0.0384,-0.0384,-0.0384,0,0.0407,0.0441,0.0454,0.0481,0.0538,0.052,0.0569,0.0557,0.0554,0.0592,0.0469,0.0475,0.026,0.015,-0.0028,-0.0207,-0.0198,-0.0371,-0.0406,-0.037,-0.0369,-0.0404,-0.0406,-0.0387,-0.0386,-0.0385,-0.0385,0,0.0461,0.0469,0.0525,0.0556,0.0571,0.0612,0.0654,0.069,0.0675,0.0723,0.0716,0.0617,0.0479,0.0264,0.004,-0.0125,-0.0309,-0.0375,-0.0312,-0.0339,-0.0454,-0.0451,-0.0499,-0.0499,-0.05,-0.0501,-0.0501,0,0.0491,0.0525,0.0585,0.0626,0.0644,0.0696,0.0737,0.075,0.0798,0.0819,0.0857,0.0748,0.0693,0.0363,0.0056,-0.0233,-0.0285,-0.0398,-0.0443,-0.0435,-0.0465,-0.046,-0.0456,-0.0425,-0.0425,-0.0424,-0.0424,0,0.0551,0.0571,0.0617,0.0696,0.0756,0.0824,0.089,0.095,0.0985,0.1035,0.109,0.1054,0.0756,0.0477,0.0077,-0.013,-0.0353,-0.0404,-0.0408,-0.0397,-0.037,-0.0398,-0.0395,-0.0423,-0.0423,-0.0423,-0.0423,-0.0423,0.0597,0.0634,0.0693,0.0765,0.0845,0.0945,0.101,0.1095,0.1199,0.1283,0.1261,0.1225,0.0914,0.041,0.0054,-0.0334,-0.0328,-0.0469,-0.0468,-0.0467,-0.0442,-0.0417,-0.0474,-0.0474,-0.0475,-0.0475,-0.0475,0,0.0645,0.068,0.0754,0.0849,0.094,0.0975,0.1107,0.1173,0.1308,0.1395,0.144,0.1169,0.0865,0.0491,-0.0069,-0.0403,-0.0445,-0.0517,-0.0486,-0.0484,-0.0483,-0.0459,-0.0496,-0.0497,-0.0498,-0.0499,0,0,0.067,0.0734,0.0759,0.0902,0.098,0.1104,0.1184,0.1293,0.1376,0.1453,0.1458,0.1424,0.0997,0.0598,0.0146,-0.0177,-0.0267,-0.0253,-0.0199,-0.0109,-0.0105,-0.0416,-0.037,0,0,0,0,0]}],[{"header":{"parameterUnit":"m.s-1","parameterCategory":2,"la1":30.2991,"la2":30.254,"lo1":-89.0895,"lo2":-89.0444,"dy":0.0017,"dx":0.0017,"nx":28,"ny":28,"refTime":"2024-06-19T03:00:00:Z","depth":"4","parameterNumber":2,"parameterNumberName":"U-component_of_CURRENTS"},"data":[0,0,0,0,0,0,0,0,0,0,0,0,0,0,0,0,0,0,0,0,0,0,0,0,0,0,0,0,0,0,0,0,0,0,0,0,0,0,0,0,0,0,0,0,0,0,0,0,0,0,0,0,0,0,0,0,0,0,0.1932,0.1933,0,0.1987,0.1987,0.1987,0.2039,0.204,0.2041,0.2042,0.216,0.2162,0.2165,0,0,0,0,0,0,0,0,0,0,0,0,0,0.1886,0.1886,0.1932,0.1933,0.1934,0.1987,0.1987,0.1987,0.2039,0.204,0.2042,0.2043,0.2159,0.2162,0.2165,0,0,0,0,0,0,0,0,0,0,0,0,0,0.1917,0.1886,0.1932,0.1969,0.1973,0.1986,0.1987,0.1988,0.2039,0.204,0.2042,0.2043,0.2159,0.2162,0.2165,0.2157,0,0,0.2175,0.2177,0,0,0,0,0,0,0,0,0.1915,0.1918,0.1962,0.1966,0.1971,0.2011,0.2014,0.2049,0.2039,0.201,0.2042,0.2044,0.2117,0.2124,0.2125,0.2163,0.2168,0.2176,0.2178,0.2179,0.218,0,0,0,0,0,0,0,0.1913,0.1916,0.195,0.1963,0.1968,0.1987,0.1993,0.202,0.2054,0.2013,0.2018,0.2028,0.212,0.2122,0.2129,0.2169,0.2176,0.2179,0.2181,0.2182,0.2351,0.2353,0,0,0,0,0,0,0.191,0.1914,0.1949,0.1952,0.1949,0.1987,0.1993,0.1994,0.2052,0.2063,0.2027,0.2031,0.2115,0.2125,0.2133,0.2259,0.2179,0.2182,0.2184,0.2348,0.2351,0.2354,0,0,0,0,0,0,0.1909,0.1912,0.1947,0.1938,0.1944,0.1987,0.1987,0.1994,0.2039,0.2063,0.2074,0.2071,0.2117,0.2129,0.2198,0.2259,0.2184,0.2187,0.2345,0.2349,0.2353,0.2426,0,0,0,0,0,0,0.1907,0.1911,0.1931,0.1937,0.1944,0.1985,0.1986,0.1994,0.2043,0.2049,0.2103,0.2113,0.2119,0.2193,0.2201,0.2262,0.219,0.2342,0.2347,0.2351,0.242,0.2432,0.2441,0,0,0,0,0,0.1905,0.1917,0.1931,0.1937,0.1963,0.1987,0.1993,0.2025,0.2044,0.207,0.211,0.2113,0.2229,0.2197,0.2206,0.227,0.234,0.2346,0.2351,0.2416,0.2429,0.2441,0,0,0,0,0,0,0.1909,0.1924,0.194,0.1958,0.1988,0.1998,0.203,0.2048,0.2096,0.212,0.2136,0.2148,0.2235,0.224,0.2204,0.2333,0.2289,0.2296,0.2335,0.2348,0.2358,0.235,0.2192,0,0,0,0,0,0.1918,0.1934,0.1953,0.1975,0.1993,0.2019,0.2042,0.2067,0.21,0.2124,0.2166,0.2213,0.2256,0.2292,0.2329,0.2393,0.2397,0.2444,0.2454,0.2463,0.2464,0.2513,0.2527,0.2372,0.2372,0.2372,0,0,0.1927,0.1939,0.195,0.1979,0.2005,0.2036,0.2037,0.2086,0.2129,0.213,0.222,0.2254,0.2282,0.2358,0.2398,0.2375,0.2515,0.247,0.2477,0.2473,0.252,0.2535,0.2548,0.2376,0.2375,0.2375,0,0,0.1939,0.1966,0.1982,0.2011,0.2062,0.2079,0.2103,0.2147,0.2192,0.2265,0.2284,0.2349,0.2422,0.2451,0.2471,0.2561,0.2567,0.2592,0.2642,0.269,0.2703,0.2714,0.2755,0.2769,0.2599,0.2599,0.2599,0,0.1954,0.1974,0.1995,0.2023,0.206,0.2103,0.2141,0.2183,0.2253,0.2299,0.2313,0.2433,0.2461,0.2537,0.2575,0.2585,0.2612,0.2589,0.2702,0.2713,0.2723,0.2762,0.2777,0.2603,0.2602,0.2602,0.2602,0,0.1969,0.2006,0.2024,0.2072,0.2114,0.2159,0.2216,0.2283,0.2346,0.2389,0.2501,0.2538,0.2609,0.2636,0.2635,0.2732,0.2729,0.2707,0.2665,0.2743,0.278,0.2794,0.2609,0.2607,0.2606,0.2605,0,0,0.1945,0.2019,0.2033,0.2067,0.2151,0.2178,0.2272,0.2355,0.2426,0.2511,0.2597,0.2679,0.2716,0.274,0.276,0.28,0.2901,0.2796,0.2796,0.2827,0.3019,0.2857,0.2857,0.2908,0.291,0.2912,0.3021,0,0.1959,0.201,0.2057,0.2131,0.2161,0.2245,0.2323,0.2413,0.2502,0.26,0.2663,0.2756,0.2751,0.2805,0.2848,0.2891,0.294,0.2874,0.2946,0.2948,0.2787,0.2867,0.292,0.3031,0.3034,0.3037,0.3038,0,0.1952,0.1992,0.2059,0.2158,0.2186,0.2252,0.2391,0.2467,0.2607,0.2685,0.2784,0.2837,0.2934,0.2908,0.3022,0.2988,0.3017,0.3033,0.3037,0.2864,0.2811,0.2935,0.3063,0.3061,0.3059,0.3057,0.3056,0,0.1897,0.1992,0.2049,0.2083,0.2202,0.2277,0.2362,0.2504,0.2583,0.2749,0.2818,0.2938,0.3007,0.3068,0.3126,0.3093,0.323,0.3181,0.306,0.305,0.3128,0.3115,0.3255,0.3254,0.3254,0.3254,0.3254,0,0.1865,0.1915,0.2038,0.2067,0.2162,0.2262,0.2385,0.2494,0.2643,0.2733,0.286,0.2932,0.3053,0.3139,0.3172,0.3167,0.3279,0.308,0.3068,0.316,0.3149,0.3139,0.3124,0.3258,0.3257,0.3256,0.3256,0,0.1784,0.1864,0.193,0.2075,0.2133,0.2204,0.2384,0.2461,0.2621,0.274,0.2797,0.2961,0.3077,0.3176,0.3286,0.3204,0.3231,0.3203,0.3323,0.3315,0.3005,0.2993,0.3057,0.3052,0.3048,0.3044,0.3042,0,0.1739,0.1766,0.1919,0.1972,0.2051,0.2175,0.2261,0.2439,0.2517,0.2731,0.2767,0.2938,0.3034,0.3057,0.3177,0.3239,0.3201,0.3182,0.3054,0.3003,0.2987,0.2981,0.2975,0.3035,0.3034,0.3033,0.3032,0,0.1655,0.1728,0.1788,0.1896,0.1996,0.2083,0.2221,0.2254,0.2451,0.2605,0.2683,0.2748,0.2869,0.2954,0.3035,0.3066,0.317,0.3138,0.3144,0.3024,0.2978,0.2964,0.2963,0.3018,0.302,0.3021,0.3022,0,0.1602,0.1622,0.1717,0.1801,0.1912,0.1965,0.2047,0.2141,0.2232,0.246,0.2488,0.2677,0.2844,0.2868,0.2946,0.2969,0.2906,0.2785,0.2809,0.2826,0.2699,0.2604,0.2529,0,0,0,0,0,0.1537,0.1552,0.1618,0.1695,0.1797,0.1869,0.201,0.2091,0.2268,0.2266,0.2371,0.2481,0.2576,0.2676,0.2654,0.285,0.2924,0.2811,0.2797,0.294,0.2956,0.2829,0,0,0,0,0,0,0.1494,0.1548,0.1571,0.159,0.1629,0.1726,0.1809,0.1929,0.1937,0.2124,0.2195,0.2337,0.2477,0.2578,0.2612,0.2644,0.2584,0.2938,0.2932,0.2931,0.2946,0.2959,0.2834,0,0,0,0,0]},{"header":{"parameterUnit":"m.s-1","parameterCategory":2,"la1":30.2991,"la2":30.254,"lo1":-89.0895,"lo2":-89.0444,"dy":0.0017,"dx":0.0017,"nx":28,"ny":28,"refTime":"2024-06-19T03:00:00:Z","depth":"4","parameterNumber":3,"parameterNumberName":"V-component_of_CURRENTS"},"data":[0,0,0,0,0,0,0,0,0,0,0,0,0,0,0,0,0,0,0,0,0,0,0,0,0,0,0,0,0,0,0,0,0,0,0,0,0,0,0,0,0,0,0,0,0,0,0,0,0,0,0,0,0,0,0,0,0,0,0.0185,0.0184,0,0.0138,0.0137,0.0137,0.0111,0.0111,0.0111,0.0111,0.0005,0.0002,-0.0,0,0,0,0,0,0,0,0,0,0,0,0,0,0.0201,0.0201,0.0185,0.0184,0.0184,0.0138,0.0137,0.0137,0.0111,0.0111,0.0111,0.0111,0.0006,0.0003,-0.0001,0,0,0,0,0,0,0,0,0,0,0,0,0,0.0177,0.0201,0.0185,0.0166,0.0164,0.0138,0.0137,0.0136,0.0111,0.0111,0.0111,0.0111,0.0007,0.0003,-0.0001,-0.0029,0,0,-0.0014,-0.0016,0,0,0,0,0,0,0,0,0.0179,0.0177,0.017,0.0168,0.0165,0.0131,0.0104,0.0079,0.0111,0.013,0.0111,0.0111,0.0043,0.0035,0.0026,-0.0034,-0.0038,-0.0015,-0.0017,-0.0019,-0.002,0,0,0,0,0,0,0,0.018,0.0178,0.0165,0.0169,0.0167,0.0143,0.014,0.0099,0.0085,0.0129,0.0127,0.0123,0.0041,0.003,0.0023,-0.004,-0.0014,-0.0018,-0.0021,-0.0023,-0.0114,-0.0114,0,0,0,0,0,0,0.0191,0.018,0.0167,0.0164,0.0173,0.0143,0.014,0.0141,0.0086,0.0079,0.0123,0.0122,0.0037,0.0028,0.0019,-0.0004,-0.0019,-0.0023,-0.0025,-0.0114,-0.0114,-0.0114,0,0,0,0,0,0,0.0192,0.0191,0.0169,0.0171,0.0167,0.0143,0.0145,0.0141,0.0134,0.0083,0.0074,0.0122,0.0037,0.0025,-0.0005,-0.0009,-0.0025,-0.0029,-0.0114,-0.0114,-0.0114,-0.0059,0,0,0,0,0,0,0.0192,0.0191,0.0198,0.0172,0.0167,0.0162,0.0145,0.014,0.0132,0.013,0.0079,0.0069,0.0036,0.0002,-0.0009,-0.0015,-0.0032,-0.0115,-0.0114,-0.0114,-0.0061,-0.0057,-0.0053,0,0,0,0,0,0.0193,0.0204,0.0199,0.0197,0.0177,0.0162,0.0158,0.0139,0.0132,0.0133,0.0102,0.0071,-0.0005,-0.0002,-0.0015,-0.0022,-0.0115,-0.0114,-0.0114,-0.0062,-0.0057,-0.0053,0,0,0,0,0,0,0.021,0.0201,0.0195,0.0202,0.0187,0.0159,0.0159,0.0144,0.0121,0.0119,0.0072,0.006,0.0031,-0.0001,0.0004,-0.0046,-0.0065,-0.0068,-0.0021,-0.0017,-0.0014,0.0001,-0.0036,0,0,0,0,0,0.0219,0.0228,0.0209,0.0214,0.021,0.0185,0.0178,0.0165,0.014,0.0131,0.0095,0.0057,0.0021,-0.0,-0.0036,-0.0065,-0.0098,-0.0078,-0.0074,-0.007,-0.0067,-0.0109,-0.0108,-0.0113,-0.0113,-0.0113,0,0,0.0228,0.0223,0.0229,0.0219,0.0207,0.0206,0.0181,0.0175,0.0172,0.0121,0.0106,0.0067,0.0017,-0.0011,-0.0028,-0.0038,-0.0088,-0.007,-0.0067,-0.0065,-0.0109,-0.0108,-0.0108,-0.0113,-0.0113,-0.0113,0,0,0.0246,0.0247,0.0258,0.0251,0.0238,0.0224,0.0226,0.02,0.019,0.017,0.0133,0.0098,0.0044,0.0008,-0.0017,-0.0016,-0.0065,-0.003,-0.0003,-0.0043,-0.0043,-0.0043,-0.0088,-0.0092,-0.0029,-0.0029,-0.0029,0,0.0256,0.0269,0.0257,0.0262,0.0265,0.0237,0.0247,0.0229,0.0197,0.0187,0.0174,0.0096,0.0053,0.0014,0.0016,-0.0008,-0.0039,-0.0015,-0.0038,-0.0039,-0.004,-0.0085,-0.0091,-0.0026,-0.0026,-0.0027,-0.0027,0,0.0278,0.029,0.0297,0.0299,0.0298,0.0303,0.0283,0.0274,0.0257,0.0233,0.0196,0.014,0.0095,0.0072,0.0043,0.001,-0.0011,-0.0026,-0.0046,-0.0036,-0.0085,-0.0092,-0.0022,-0.0023,-0.0024,-0.0025,0,0,0.0297,0.0311,0.0315,0.033,0.0323,0.0326,0.0323,0.0311,0.0311,0.0267,0.0257,0.0188,0.0156,0.0125,0.0078,0.004,0.0,0.0008,0.0005,-0.003,-0.0092,-0.0092,-0.01,-0.0017,-0.0018,-0.0018,-0.0124,0,0.0319,0.0347,0.0346,0.0376,0.0392,0.0376,0.038,0.0364,0.0341,0.0322,0.0257,0.0228,0.0177,0.0158,0.011,0.0032,-0.0015,0.003,-0.0102,-0.0106,-0.0102,-0.0107,-0.0021,-0.0129,-0.0131,-0.0132,-0.0133,0,0.034,0.036,0.0397,0.0426,0.0432,0.0445,0.0455,0.0453,0.0416,0.0397,0.035,0.0298,0.0231,0.0192,0.0057,0.009,0.0004,-0.0061,-0.0067,-0.009,-0.0118,-0.0143,-0.0147,-0.0146,-0.0145,-0.0144,-0.0143,0,0.0367,0.0397,0.0434,0.0444,0.0465,0.0483,0.0495,0.0477,0.0488,0.0447,0.0445,0.035,0.0313,0.0196,0.006,0.0058,-0.0087,-0.0109,-0.0196,-0.0198,-0.0191,-0.019,-0.0208,-0.0208,-0.0208,-0.0208,-0.0207,0,0.0391,0.0421,0.0454,0.0478,0.0525,0.0527,0.0564,0.056,0.0558,0.0575,0.0491,0.0476,0.0315,0.0212,0.0078,-0.0076,-0.0079,-0.0194,-0.0223,-0.0167,-0.0161,-0.0197,-0.0194,-0.0212,-0.0211,-0.021,-0.0209,0,0.0409,0.043,0.0478,0.0521,0.0541,0.0577,0.0628,0.0649,0.0644,0.0665,0.066,0.057,0.0438,0.0267,0.0074,-0.0041,-0.0195,-0.0253,-0.0178,-0.0202,-0.0288,-0.0281,-0.0364,-0.0364,-0.0365,-0.0366,-0.0366,0,0.0421,0.0448,0.0517,0.0553,0.0579,0.063,0.0667,0.0691,0.072,0.0721,0.0735,0.0628,0.0542,0.0281,0.0087,-0.0173,-0.0212,-0.0303,-0.0302,-0.0283,-0.0304,-0.0296,-0.0288,-0.0367,-0.0367,-0.0368,-0.0368,0,0.0443,0.0469,0.051,0.0586,0.0641,0.0701,0.076,0.0792,0.0818,0.0821,0.0804,0.0667,0.0517,0.0298,0.0096,-0.0093,-0.0248,-0.0311,-0.0312,-0.0311,-0.0288,-0.0306,-0.0298,-0.037,-0.037,-0.037,-0.0369,0,0.0462,0.0489,0.0545,0.0607,0.0682,0.075,0.078,0.0822,0.0856,0.0868,0.0858,0.0703,0.0614,0.0337,0.0152,-0.0032,-0.0089,-0.016,-0.0169,-0.0169,-0.0084,-0.0024,-0.005,0,0,0,0,0,0.0473,0.0498,0.0559,0.0629,0.0705,0.075,0.0831,0.0854,0.0887,0.0893,0.0885,0.0751,0.049,0.0373,0.0191,0.0105,-0.0146,-0.012,-0.0238,-0.0384,-0.0381,-0.0314,0,0,0,0,0,0,0.0478,0.053,0.0551,0.0634,0.0684,0.0771,0.0827,0.0854,0.0858,0.0872,0.0743,0.0692,0.0438,0.06,0.0185,0.0127,0.0022,-0.0237,-0.0242,-0.0385,-0.0383,-0.038,-0.0311,0,0,0,0,0]}]]